ON7CFI Weather Reports


time (UTC)temp
C
wind
direction
speed
KPH
gust
KPH
rain 1hr
cm
rain 24hr
cm
rain mn
cm
humidity
%
barometer
mb
20260505212503 9 77 3.2 11.3 0.36 1.22 1.22 96 1008.5
20260505212003 10 74 3.2 12.9 0.33 1.17 1.17 96 1008.5
20260505211503 10 74 4.8 12.9 0.33 1.14 1.12 96 1008.5
20260505211218 10 75 3.2 12.9 0.30 1.12 1.09 97 1008.5
20260505210503 10 76 3.2 12.9 0.30 1.09 1.07 97 1008.5
20260505210003 10 79 3.2 12.9 0.28 1.04 1.02 97 1008.6
20260505205503 10 76 3.2 9.7 0.28 1.02 0.99 97 1008.6
20260505205003 10 72 3.2 6.4 0.28 0.99 0.99 97 1008.6
20260505204504 10 74 3.2 11.3 0.28 0.99 0.97 97 1008.6
20260505203503 10 73 3.2 8.0 0.28 0.97 0.91 96 1008.6
20260505203003 10 69 1.6 6.4 0.25 0.91 0.89 96 1008.6
20260505202503 10 75 3.2 6.4 0.23 0.89 0.86 96 1008.6
20260505202003 10 81 3.2 9.7 0.23 0.89 0.84 97 1008.6
20260505201503 10 79 3.2 9.7 0.23 0.84 0.79 96 1008.6
20260505201220 10 79 3.2 6.4 0.23 0.84 0.79 96 1008.5
20260505200503 10 82 3.2 6.4 0.23 0.79 0.76 96 1008.5
20260505200003 10 87 1.6 6.4 0.23 0.79 0.74 96 1008.4
20260505195717 10 85 1.6 6.4 0.23 0.79 0.74 96 1008.5
20260505195003 10 80 1.6 6.4 0.23 0.74 0.71 96 1008.5
20260505194503 10 84 1.6 8.0 0.23 0.71 0.69 96 1008.4
20260505194003 10 69 3.2 12.9 0.20 0.71 0.66 96 1008.4
20260505193503 10 63 3.2 12.9 0.20 0.69 0.64 96 1008.4
20260505193003 10 64 3.2 12.9 0.18 0.66 0.61 96 1008.3
20260505192503 10 68 3.2 9.7 0.18 0.66 0.61 96 1008.3
20260505192217 10 64 3.2 9.7 0.15 0.64 0.61 96 1008.3
20260505191719 10 71 4.8 9.7 0.18 0.64 0.61 96 1008.3
20260505191004 10 80 3.2 6.4 0.15 0.61 0.56 96 1008.2
20260505190503 10 86 1.6 6.4 0.13 0.58 0.53 95 1008.2
20260505190004 10 98 1.6 6.4 0.10 0.56 0.51 95 1008.2
20260505185718 10 93 3.2 9.7 0.08 0.53 0.51 95 1008.2
20260505185003 10 81 3.2 9.7 0.08 0.51 0.48 95 1008.2
20260505184718 10 78 3.2 6.4 0.05 0.51 0.46 95 1008.1
20260505184217 10 76 1.6 6.4 0.05 0.51 0.46 95 1008.1
20260505183503 10 78 1.6 6.4 0.05 0.48 0.43 95 1008.1
20260505183003 10 80 1.6 6.4 0.05 0.48 0.43 95 1008.1
20260505182503 10 84 1.6 6.4 0.05 0.48 0.43 95 1008.1
20260505182217 10 79 1.6 6.4 0.05 0.48 0.43 94 1008.2
20260505181503 10 81 1.6 6.4 0.03 0.46 0.43 94 1008.1
20260505181003 10 94 1.6 4.8 0.03 0.46 0.43 94 1008.1
20260505180503 10 81 1.6 9.7 0.03 0.46 0.43 94 1008.2
20260505180003 10 77 1.6 9.7 0.03 0.46 0.43 94 1008.1
20260505175503 10 80 3.2 6.4 0.00 0.43 0.41 94 1008.1
20260505175003 10 85 3.2 9.7 0.00 0.43 0.41 94 1008.2
20260505174503 10 88 3.2 9.7 0.00 0.43 0.41 94 1008.2
20260505174003 10 79 3.2 8.0 0.00 0.43 0.41 93 1008.1
20260505173503 10 78 3.2 8.0 0.00 0.43 0.41 94 1008.3
20260505173003 10 88 3.2 11.3 0.00 0.43 0.41 94 1008.2
20260505172503 10 86 3.2 11.3 0.00 0.43 0.41 94 1008.2
20260505172003 10 86 3.2 6.4 0.00 0.43 0.41 94 1008.2
20260505171503 10 84 3.2 14.5 0.00 0.43 0.41 94 1008.1
20260505171003 10 82 3.2 14.5 0.00 0.43 0.41 94 1008.2
20260505170503 10 94 1.6 9.7 0.00 0.43 0.41 95 1008.2
20260505170003 10 80 3.2 8.0 0.00 0.43 0.41 95 1008.2
20260505165503 10 80 3.2 11.3 0.00 0.43 0.41 94 1008.2
20260505165003 10 91 3.2 11.3 0.00 0.43 0.41 95 1008.1
20260505164503 10 84 4.8 16.1 0.00 0.43 0.41 95 1008.2
20260505164003 10 77 3.2 16.1 0.00 0.43 0.41 95 1008.2
20260505163503 10 81 1.6 11.3 0.00 0.43 0.41 95 1008.2
20260505163003 10 78 3.2 9.7 0.00 0.43 0.41 95 1008.1
20260505162503 10 76 3.2 9.7 0.00 0.43 0.41 95 1008.1
20260505162003 10 78 3.2 9.7 0.00 0.43 0.41 95 1008.2
20260505161503 10 79 3.2 9.7 0.00 0.43 0.41 95 1008.3
20260505161004 10 78 3.2 8.0 0.00 0.43 0.41 95 1008.3
20260505160503 10 75 3.2 8.0 0.00 0.43 0.41 95 1008.2
20260505153003 11 70 3.2 12.9 0.00 0.43 0.41 95 1008.4
20260505152717 11 77 3.2 12.9 0.00 0.43 0.41 95 1008.4
20260505152218 11 79 3.2 11.3 0.00 0.43 0.41 95 1008.3
20260505151503 11 70 3.2 11.3 0.00 0.43 0.41 95 1008.3
20260505151003 11 75 3.2 9.7 0.00 0.43 0.41 95 1008.4
20260505150503 11 79 3.2 9.7 0.00 0.43 0.41 95 1008.4
20260505140503 10 70 1.6 8.0 0.00 0.43 0.41 96 1008.7
20260505125003 10 80 3.2 14.5 0.00 0.43 0.41 97 1009.0
20260505124503 10 78 4.8 14.5 0.00 0.43 0.41 97 1009.0
20260505124003 10 80 4.8 14.5 0.00 0.43 0.41 97 1009.0
20260505123503 10 73 3.2 12.9 0.00 0.43 0.41 97 1009.0
20260505123003 10 69 4.8 12.9 0.00 0.43 0.41 97 1009.1
20260505122503 10 72 3.2 12.9 0.00 0.43 0.41 97 1009.1
20260505122003 10 72 3.2 12.9 0.00 0.43 0.41 97 1009.2
20260505121503 10 69 3.2 11.3 0.00 0.43 0.41 97 1009.2
20260505121217 10 67 3.2 11.3 0.00 0.43 0.41 97 1009.2
20260505120503 10 63 3.2 11.3 0.00 0.43 0.41 97 1009.2
20260505120004 10 67 3.2 11.3 0.00 0.43 0.41 97 1009.3
20260505115503 10 67 3.2 9.7 0.00 0.43 0.41 97 1009.3
20260505115003 10 67 3.2 9.7 0.00 0.43 0.41 97 1009.3
20260505114503 10 62 3.2 12.9 0.00 0.43 0.41 97 1009.4
20260505114003 10 53 3.2 12.9 0.00 0.43 0.41 97 1009.5
20260505113503 10 59 3.2 11.3 0.00 0.43 0.41 97 1009.2
20260505113004 10 51 3.2 9.7 0.00 0.43 0.41 97 1009.2
20260505112503 10 19 1.6 8.0 0.00 0.43 0.41 97 1009.3
20260505112003 10 58 3.2 9.7 0.00 0.43 0.41 97 1009.4
20260505111717 10 67 3.2 12.9 0.00 0.43 0.41 97 1009.3
20260505111003 10 62 3.2 12.9 0.00 0.43 0.41 97 1009.4
20260505110503 10 59 3.2 8.0 0.00 0.43 0.41 97 1009.4
20260505102003 10 67 1.6 11.3 0.03 0.43 0.41 97 1009.5
20260505101503 10 76 3.2 8.0 0.03 0.43 0.41 97 1009.4
20260505101003 10 71 4.8 14.5 0.03 0.43 0.41 97 1009.5
20260505100717 10 69 4.8 14.5 0.03 0.43 0.41 97 1009.5
20260505100004 11 73 3.2 11.3 0.03 0.43 0.41 97 1009.4
20260505095503 11 66 3.2 9.7 0.03 0.43 0.41 97 1009.4
20260505095003 11 61 3.2 8.0 0.03 0.43 0.41 97 1009.4
20260505094503 11 62 3.2 8.0 0.05 0.43 0.41 97 1009.5
20260505094218 11 68 3.2 12.9 0.05 0.43 0.41 97 1009.5
20260505093503 11 71 3.2 12.9 0.05 0.43 0.41 97 1009.5
20260505093003 11 60 1.6 6.4 0.05 0.43 0.41 98 1009.5
20260505092503 11 54 1.6 6.4 0.05 0.43 0.41 97 1009.6
20260505092003 10 61 3.2 9.7 0.03 0.43 0.38 97 1009.6
20260505091503 10 72 3.2 9.7 0.03 0.43 0.38 97 1009.6
20260505091003 10 76 3.2 9.7 0.03 0.43 0.38 97 1009.6
20260505090716 11 73 3.2 9.7 0.03 0.43 0.38 97 1009.7
20260505090003 11 69 3.2 9.7 0.03 0.43 0.38 98 1009.6
20260505085503 11 66 1.6 9.7 0.03 0.43 0.38 98 1009.6
20260505085003 11 62 1.6 6.4 0.03 0.43 0.38 98 1009.6
20260505084503 11 67 3.2 9.7 0.00 0.41 0.36 97 1009.6
20260505084003 11 72 3.2 9.7 0.00 0.41 0.36 97 1009.6
20260505083503 11 71 3.2 9.7 0.00 0.41 0.36 97 1009.7
20260505083003 11 67 3.2 9.7 0.00 0.41 0.36 98 1009.7
20260505082503 11 69 1.6 8.0 0.00 0.41 0.36 98 1009.7
20260505082003 11 71 3.2 8.0 0.00 0.41 0.36 98 1009.7
20260505081503 11 65 3.2 8.0 0.00 0.41 0.36 98 1009.7
20260505081004 11 56 1.6 8.0 0.00 0.41 0.36 97 1009.7
20260505080503 11 63 1.6 8.0 0.00 0.41 0.36 98 1009.6
20260505080003 11 63 3.2 8.0 0.00 0.41 0.36 97 1009.7
20260505075503 11 60 3.2 8.0 0.00 0.41 0.36 97 1009.7
20260505075003 11 56 1.6 8.0 0.00 0.41 0.36 98 1009.7
20260505074509 11 59 3.2 11.3 0.00 0.41 0.36 97 1009.7
20260505074003 11 60 3.2 12.9 0.00 0.41 0.36 97 1009.7
20260505073718 11 51 3.2 12.9 0.00 0.41 0.36 97 1009.7
20260505073003 11 70 1.6 6.4 0.00 0.41 0.36 98 1009.7
20260505072503 11 78 1.6 4.8 0.00 0.41 0.36 97 1009.7
20260505072003 11 50 1.6 6.4 0.03 0.41 0.36 98 1009.6
20260505071503 11 68 3.2 9.7 0.03 0.41 0.36 97 1009.7
20260505071217 11 56 3.2 9.7 0.05 0.41 0.36 97 1009.6
20260505070503 11 62 4.8 11.3 0.05 0.41 0.36 97 1009.7
20260505070004 11 72 4.8 12.9 0.05 0.41 0.36 97 1009.7
20260505065504 11 75 3.2 12.9 0.05 0.41 0.36 97 1009.5
20260505065003 11 74 3.2 12.9 0.05 0.41 0.36 97 1009.5
20260505064503 11 74 4.8 12.9 0.05 0.41 0.36 97 1009.7
20260505064003 11 68 3.2 12.9 0.05 0.41 0.36 97 1009.8
20260505063503 11 41 3.2 9.7 0.05 0.41 0.36 97 1009.8
20260505063003 11 48 3.2 9.7 0.05 0.41 0.36 97 1009.7
20260505062503 11 61 1.6 4.8 0.05 0.41 0.36 97 1009.7
20260505062003 11 74 1.6 4.8 0.05 0.38 0.33 97 1009.7
20260505061717 11 87 0.0 3.2 0.05 0.38 0.33 97 1009.8
20260505061003 11 88 0.0 3.2 0.05 0.36 0.33 97 1009.8
20260505060503 11 78 1.6 6.4 0.05 0.36 0.33 97 1009.7
20260505060216 11 70 1.6 6.4 0.05 0.36 0.33 97 1009.7
20260505055717 11 70 3.2 6.4 0.08 0.36 0.33 97 1009.8
20260505055003 11 70 3.2 8.0 0.08 0.36 0.33 97 1009.8
20260505054503 11 61 1.6 8.0 0.10 0.36 0.33 97 1009.7
20260505054216 11 55 3.2 8.0 0.08 0.33 0.33 97 1009.7
20260505053503 11 73 1.6 9.7 0.08 0.33 0.30 97 1009.7
20260505053005 11 82 3.2 9.7 0.10 0.33 0.30 97 1009.8
20260505052503 11 85 1.6 9.7 0.10 0.33 0.30 97 1009.7
20260505052003 11 81 1.6 9.7 0.10 0.33 0.30 97 1009.7
20260505051503 11 31 1.6 6.4 0.08 0.33 0.28 97 1009.7
20260505051003 11 14 1.6 6.4 0.08 0.33 0.28 97 1009.8
20260505050717 11 337 1.6 6.4 0.08 0.33 0.28 97 1009.7
20260505050218 12 28 1.6 6.4 0.05 0.30 0.25 97 1009.7
20260505041503 12 76 3.2 6.4 0.00 0.23 0.20 97 1009.8
20260505041003 12 78 3.2 11.3 0.00 0.23 0.20 97 1009.8
20260505040717 12 67 3.2 11.3 0.00 0.23 0.20 97 1009.8
20260505040004 12 325 1.6 6.4 0.00 0.23 0.20 96 1009.7
20260505035503 12 327 1.6 8.0 0.00 0.23 0.20 96 1009.7
20260505035003 12 335 1.6 8.0 0.00 0.23 0.20 96 1009.7
20260505034503 12 339 1.6 6.4 0.00 0.23 0.20 97 1009.7
20260505034005 12 36 1.6 6.4 0.00 0.23 0.20 97 1009.7
20260505033716 12 59 1.6 6.4 0.00 0.23 0.20 97 1009.7
20260505033217 12 78 1.6 6.4 0.00 0.23 0.20 97 1009.8
20260505032504 12 67 1.6 6.4 0.00 0.23 0.20 97 1009.7
20260505032003 12 68 3.2 9.7 0.00 0.23 0.20 96 1009.7
20260505031718 12 67 3.2 9.7 0.00 0.23 0.20 97 1009.9
20260505031217 12 66 1.6 6.4 0.00 0.23 0.20 97 1009.8
20260505030503 12 70 1.6 6.4 0.00 0.23 0.20 97 1009.9
20260505030217 12 73 1.6 6.4 0.00 0.23 0.20 97 1009.9
20260505025503 12 63 1.6 4.8 0.05 0.23 0.20 97 1010.0
20260505025003 12 73 1.6 6.4 0.05 0.23 0.20 97 1010.1
20260505024503 13 71 3.2 6.4 0.05 0.23 0.20 97 1010.0
20260505024003 12 70 1.6 6.4 0.13 0.23 0.20 97 1010.0
20260505023503 13 80 1.6 6.4 0.15 0.23 0.20 97 1010.0
20260505023003 13 77 1.6 8.0 0.15 0.23 0.20 97 1010.0
20260505022503 13 61 1.6 8.0 0.18 0.23 0.20 97 1010.0
20260505022003 13 68 1.6 6.4 0.18 0.23 0.20 97 1010.0
20260505021503 13 80 1.6 6.4 0.18 0.23 0.20 97 1010.1
20260505021003 13 81 1.6 4.8 0.18 0.23 0.20 97 1010.1
20260505020504 13 82 1.6 4.8 0.18 0.23 0.20 97 1010.1
20260505020003 13 103 0.0 4.8 0.15 0.23 0.18 97 1010.0
20260505015503 13 186 0.0 1.6 0.15 0.20 0.15 97 1010.1
20260505015003 13 0 0.0 0.0 0.13 0.18 0.15 97 1010.0
20260505014503 13 186 0.0 1.6 0.13 0.18 0.15 97 1010.1
20260505014003 13 186 0.0 3.2 0.05 0.13 0.08 97 1010.1
20260505013503 13 186 0.0 3.2 0.03 0.08 0.05 97 1010.1
20260505013003 13 186 0.0 1.6 0.03 0.08 0.05 97 1010.1
20260505012503 13 0 0.0 0.0 0.00 0.05 0.03 97 1010.1
20260505012217 13 0 0.0 0.0 0.00 0.05 0.03 97 1010.1
20260505011718 13 0 0.0 0.0 0.00 0.05 0.03 97 1010.2
20260505011003 13 186 0.0 1.6 0.00 0.05 0.03 97 1010.2
20260505010503 13 186 0.0 1.6 0.00 0.05 0.03 97 1010.3
20260505010003 12 186 0.0 1.6 0.00 0.05 0.03 97 1010.4
20260505005503 12 0 0.0 0.0 0.00 0.05 0.03 97 1010.4
20260505005004 12 0 0.0 0.0 0.00 0.05 0.03 97 1010.4
20260505004503 12 0 0.0 0.0 0.00 0.05 0.03 97 1010.5
20260505004003 12 0 0.0 0.0 0.00 0.05 0.03 96 1010.5
20260505003503 12 0 0.0 0.0 0.00 0.05 0.03 96 1010.6
20260505003218 12 0 0.0 0.0 0.00 0.05 0.03 96 1010.6
20260505002717 12 0 0.0 0.0 0.00 0.05 0.03 96 1010.5
20260505002003 12 0 0.0 0.0 0.00 0.05 0.03 96 1010.5
20260505001503 12 0 0.0 0.0 0.00 0.05 0.03 96 1010.5
20260505001004 12 0 0.0 0.0 0.00 0.05 0.03 96 1010.6
20260505000503 12 0 0.0 0.0 0.00 0.05 0.03 96 1010.7
20260505000003 12 0 0.0 0.0 0.00 0.05 0.03 96 1010.8
20260504235503 12 0 0.0 0.0 0.00 0.05 0.03 96 1010.8
20260504235003 12 0 0.0 0.0 0.00 0.05 0.03 96 1010.7
20260504234503 12 0 0.0 0.0 0.00 0.05 0.03 96 1010.8
20260504234218 12 0 0.0 0.0 0.00 0.05 0.03 96 1010.9
20260504233503 12 0 0.0 0.0 0.00 0.05 0.03 96 1010.8
20260504233003 12 0 0.0 0.0 0.00 0.05 0.03 96 1010.8
20260504232503 12 0 0.0 0.0 0.03 0.08 0.03 96 1010.8
20260504232218 13 0 0.0 0.0 0.03 0.08 0.03 96 1010.8
20260504231503 13 0 0.0 0.0 0.03 0.08 0.03 96 1010.9
20260504231003 13 0 0.0 0.0 0.03 0.08 0.03 96 1010.9
20260504230503 13 0 0.0 0.0 0.03 0.08 0.03 96 1011.0
20260504230003 13 0 0.0 0.0 0.03 0.08 0.03 96 1011.1
20260504225503 13 0 0.0 0.0 0.03 0.10 0.03 96 1011.1
20260504225003 13 0 0.0 0.0 0.03 0.10 0.03 96 1011.2
20260504224503 13 0 0.0 0.0 0.03 0.10 0.03 96 1011.3
20260504224003 12 0 0.0 0.0 0.03 0.10 0.03 96 1011.3
20260504223503 12 0 0.0 0.0 0.03 0.10 0.03 96 1011.3
20260504223003 12 0 0.0 0.0 0.03 0.10 0.03 96 1011.3
20260504222503 13 0 0.0 0.0 0.00 0.08 0.00 96 1011.4
20260504222004 13 0 0.0 0.0 0.03 0.08 0.00 96 1011.5
20260504221503 13 0 0.0 0.0 0.03 0.08 0.00 96 1011.6
20260504221217 12 0 0.0 0.0 0.03 0.08 0.00 96 1011.6
20260504220503 12 0 0.0 0.0 0.03 0.08 0.00 95 1011.7
20260504220003 12 0 0.0 0.0 0.03 0.08 0.00 95 1011.7
20260504215503 12 0 0.0 0.0 0.03 0.08 0.08 95 1011.7
20260504215003 12 0 0.0 0.0 0.03 0.08 0.08 95 1011.8
20260504214504 12 0 0.0 0.0 0.05 0.08 0.08 94 1011.8
20260504214004 13 0 0.0 0.0 0.05 0.08 0.08 94 1011.8
20260504213503 13 0 0.0 0.0 0.05 0.08 0.08 94 1011.8
20260504213003 13 0 0.0 0.0 0.05 0.08 0.08 94 1011.9